SCP
0 0 0 0 0 0 0 0 0 0 0 0 0 0 0 0 0 0 -0 -0 0 0 0 0 0 0 0 0 0 0 0 0 0 0 -0 -0 0 0 0 -0 -0 0 -0 0 0 0 0
0 0 0 0 0 0 0 0 0 0 0 0 0 0 0 0 0 0 0 0 0 0 0 0 0 0 0 0 0 0 0 0 -0 0 0 0 -0 0 -0 -0 0 0 -0 0 0 0 0
0 0 0 0 0 0 0 0 0 0 0 0 0 0 0 0 0 0 0 0 0 0 0 0 0 0 0 0 0 0 0 0 -0 -0 0 -0 -0 0 -0 -0 -0 0 0 0 0 0 0
0 0 0 0 0 0 0 0 0 0 0 0 0 0 0 0 0 0 0 0 0 0 0 -0 0 0 0 0 0 0 0 0 0 0 -0 0 -0 -0 -0 0 0 0 0 0 0 0 0
0 0 0 0 0 0 0 0 -0 0 0 0 0 0 0 -0 -0 -0 0 0 0 0 -0 -0 0 0 0 0 0 0 0 0 0 0 0 0 -0 -0 0 0 0 0 0 0 0 0 0
-0 -0 -0 0 0 0 0 0 0 0 0 0 0 0 -0 -0 -0 -0 -0 0 0 0 -0 0 -0 0 0 0 0 0 0 0 0 0 0 0 -0 -0 0 -0 0 0 -0 -0 0 0 0
-0 -0 -0 -0 0 0 0 0 0 0 0 0 0 0 -0 -0 -0 -0 -0 0 0 0 0 0 0 0 0 0 0 0 0 -0 -0 0 0 0 0 0 0 -0 -0 0 0 0 0 0 0
-0 -0 0 0 0 0 0 0 0 0 0 0 0 0 -0 -0 -0 -0 -0 0 0 0 0 0 -0 0 0 0 0 0 0 0 0 0 -0 0 0 -0 -0 0 0 0 -0 0 0 0 0
-0 -0 -0 -0 -0 -0 0 0 0 0 0 0 0 0 -0 -0 -0 -0 -0 -0 0 0 0 0 0 0 0 0 0 0 0 0 0 -0 -0 -0 -0 0 0 0 0 0 0 0 0 0 0
-0 -0 -0 -0 -0 -0 -0 -0 -0 -0 -0 0 0 0 0 0 0 -0 -0 0 -0 0 0 0 0 0 0 0 -0 0 0 -0 -0 -0 -0 0 -0 0 0 0 0 0 0 0 0 0 0
-0 -0 -0 -0 -0 -0 -0 -0 -0 -0 0 0 0 0 0 -0 0 -0 0 -0 -0 -0 0 0 0 0 0 -0 0 0 0 -0 -0 0 0 0 0 0 0 0 0 0 0 0 0 0 -0
-0 -0 -0 -0 -0 -0 -0 -0 0 0 0 0 0 0 0 0 -0 -0 0 0 -0 0 0 0 0 0 0 -0 0 0 0 -0 -0 -0 0 -0 0 0 0 0 0 0 0 0 0 0 0
-0 -0 -0 -0 -0 -0 -0 -0 -0 -0 0 0 -0 0 0 0 0 0 0 -0 0 0 0 0 0 0 0 0 0 0 0 0 0 0 0 0 0 0 0 0 0 -0 0 0 0 0 0
-0 -0 -0 -0 -0 -0 -0 -0 -0 -0 0 0 0 0 0 -0 0 0 -0 0 0 0 0 0 0 0 0 -0 0 0 0 0 0 0 -0 0 0 0 0 0 0 0 0 0 0 -0 0
-0 -0 -0 -0 -0 -0 -0 -0 -0 -0 0 0 0 0 0 0 -0 -0 -0 0 0 0 0 0 0 0 0 -0 0 0 0 -0 0 0 0 0 0 0 0 0 0 0 0 0 0 0 0
-0 -0 -0 -0 -0 -0 -0 -0 -0 -0 0 -0 0 0 0 0 0 -0 0 -0 0 0 0 0 0 0 0 0 0 -0 0 0 0 0 0 0 0 0 0 0 0 0 0 0 0 0 0
-0 -0 -0 -0 -0 -0 -0 -0 -0 0 0 0 -0 0 0 0 0 0 -0 0 0 0 0 0 0 0 0 0 0 0 0 0 0 0 0 0 0 0 0 0 -0 0 0 0 0 0 0
-0 -0 -0 -0 -0 -0 -0 -0 -0 0 0 0 -0 0 0 0 0 0 -0 0 0 0 0 0 0 0 0 0 0 0 0 0 0 0 0 0 0 0 0 0 0 0 0 0 0 0 0
-0 -0 -0 -0 -0 -0 -0 -0 -0 -0 0 -0 -0 0 0 -0 -0 0 0 0 0 0 0 0 0 0 0 0 0 0 0 0 0 0 0 0 0 0 0 0 0 0 0 0 0 0 0
-0 -0 -0 -0 -0 -0 -0 -0 -0 -0 0 0 -0 0 0 0 0 0 0 0 0 0 0 0 0 0 0 0 0 0 0 0 0 0 0 0 0 0 0 0 0 0 0 0 0 0 0
-0 -0 -0 -0 -0 -0 -0 -0 -0 -0 0 0 0 0 0 0 0 0 0 0 0 0 0 0 0 0 0 0 0 0 0 0 0 0 0 0 0 0 0 0 0 0 0 0 0 0 0
-0 -0 -0 -0 -0 -0 -0 -0 -0 -0 0 0 0 0 0 0 0 0 0 0 0 0 0 0 0 0 0 0 0 0 0 0 0 0 0 0 0 0 0 0 0 0 0 0 0 0 0
-0 -0 -0 -0 -0 -0 -0 -0 -0 -0 -0 0 0 0 0 0 0 0 0 0 0 0 0 0 0 0 0 0 0 0 0 0 0 0 0 0 0 0 0 0 0 0 0 0 0 0 0
-0 -0 -0 -0 -0 -0 -0 -0 -0 -0 0 -0 -0 -0 0 0 0 0 0 0 0 0 0 0 0 0 0 0 0 0 0 0 0 0 0 0 0 0 0 0 0 0 0 0 0 0 0
-0 -0 -0 -0 -0 -0 -0 -0 -0 -0 -0 0 0 0 0 0 0 0 0 0 0 0 0 0 0 0 0 -0 -0 -0 -0 -0 0 0 0 0 0 0 0 0 0 0 0 0 0 0 0
-0 -0 -0 -0 -0 -0 -0 -0 0 0 0 -0 0 0 0 0 0 0 0 0 0 0 -0 0 0 0 -0 -0 -0 0 0 0 0 0 0 0 0 0 0 0 0 0 0 0 0 0 0
-0 -0 -0 -0 -0 0 -0 0 -0 -0 0 -0 -0 0 0 0 0 0 0 0 0 0 -0 0 0 0 -0 -0 0 0 0 0 0 0 0 0 -0 0 0 0 0 0 0 0 0 0 0
-0 -0 -0 -0 0 0 0 -0 -0 -0 -0 -0 0 -0 0 0 0 0 0 0 0 -0 0 0 0 0 0 0 0 0 0 0 0 0 0 0 0 0 0 0 0 0 0 0 0 0 0
-0 -0 -0 0 0 0 0 0 0 0 0 0 0 0 0 0 0 0 0 0 -0 -0 -0 0 0 0 0 0 0 0 0 0 0 0 0 0 0 0 0 0 0 0 0 0 0 0 0
Wind_Speed_500mb
15 16 16 17 17 17 16 16 16 16 16 16 15 14 14 13 13 13 12 13 13 13 12 13 13 11 9 14 20 8 13 16 20 25 31 32 32 31 28 28 31 25 27 22 37 38 43
19 19 19 19 20 20 20 19 17 16 15 16 15 14 13 12 12 12 11 12 12 11 11 12 12 10 8 28 5 7 11 13 23 27 29 31 25 29 20 22 20 31 33 27 42 33 36
21 22 21 22 22 23 23 23 19 17 15 14 13 13 12 11 12 11 10 10 10 10 10 12 12 10 17 20 9 13 16 12 20 24 24 27 23 18 25 20 31 20 16 12 31 27 38
24 24 24 25 25 25 25 25 24 19 15 13 12 11 11 10 10 9 8 8 9 9 9 10 10 7 16 16 15 20 19 14 20 18 19 25 25 29 22 11 18 31 30 29 26 40 34
26 27 26 26 28 28 27 26 25 22 16 12 11 11 10 8 8 5 6 8 7 7 7 7 2 10 20 14 25 27 23 19 20 17 15 20 27 31 28 21 28 29 33 43 19 29 24
28 28 28 29 30 30 30 29 27 23 17 12 9 8 8 7 5 7 8 7 5 6 7 7 14 15 20 23 26 30 28 17 24 23 20 26 27 25 26 29 30 35 39 38 34 18 23
30 30 30 31 32 33 32 30 28 24 18 12 9 6 7 6 8 11 14 6 4 10 27 25 9 11 12 14 23 30 32 27 27 29 29 36 24 31 37 40 40 19 30 30 32 20 25
31 32 33 33 33 33 33 31 29 26 19 13 8 5 7 7 13 17 12 13 9 11 20 36 30 27 12 14 26 34 35 34 33 31 35 23 32 35 32 29 31 21 31 18 22 17 9
32 33 34 35 35 34 33 32 30 27 20 14 7 5 7 10 14 16 12 10 7 15 16 21 29 32 29 29 29 40 43 45 31 33 36 32 31 40 18 20 24 30 36 27 23 19 14
35 36 36 36 35 34 33 32 31 29 21 14 7 6 13 15 9 9 12 9 10 15 11 27 24 23 33 34 32 37 42 43 38 35 38 28 41 12 18 34 32 36 33 27 30 32 23
38 38 38 38 37 36 34 34 32 30 24 15 6 8 17 28 11 10 4 8 13 7 11 18 21 15 30 41 28 31 30 42 37 31 26 32 30 30 33 34 30 32 24 31 32 38 39
42 42 41 41 39 38 36 33 32 29 25 15 7 10 21 24 11 9 7 11 3 15 9 15 17 22 30 41 21 28 31 30 29 30 30 38 15 27 35 23 14 18 27 29 30 31 34
47 48 49 48 43 39 36 34 32 28 24 14 6 11 27 25 5 9 9 10 15 18 10 9 8 25 32 32 26 23 33 34 28 24 30 33 36 27 25 21 18 36 26 17 22 28 33
50 55 58 57 51 42 36 34 32 28 23 10 3 8 21 33 10 8 8 18 20 9 8 12 7 14 30 33 31 27 31 32 37 30 30 30 33 43 28 36 25 27 38 26 28 33 36
53 58 61 62 57 45 37 34 32 26 20 4 3 3 9 13 17 9 19 19 11 12 11 14 25 24 28 33 20 27 31 31 33 30 30 21 24 14 2 16 24 28 34 41 49 48 32
54 59 63 63 56 44 41 38 30 21 13 3 9 6 11 12 19 10 19 25 6 6 14 19 25 5 27 32 31 33 30 30 19 4 6 22 16 20 21 16 29 35 31 27 31 37 45
55 63 67 64 54 44 49 44 32 16 7 5 6 13 1 13 13 21 19 9 7 11 16 14 21 15 23 20 20 27 19 18 18 9 16 27 21 19 7 23 32 22 35 34 32 32 24
58 65 68 64 50 46 53 47 31 12 4 4 6 5 6 16 20 20 14 12 7 11 5 8 12 15 19 24 26 23 25 20 11 12 13 5 13 28 24 11 12 18 30 32 18 32 37
58 66 68 65 51 46 52 50 30 12 5 5 9 11 6 12 11 11 8 1 7 10 8 11 11 6 15 21 12 11 10 16 16 9 18 11 16 24 39 29 26 22 30 23 27 23 39
57 65 70 70 57 50 46 50 32 17 7 3 9 7 11 13 9 18 12 5 6 9 2 12 13 15 14 22 16 15 11 7 11 12 12 13 20 22 28 14 11 26 23 21 24 21 31
54 61 69 74 70 60 56 44 42 23 13 6 6 9 8 4 8 12 12 13 19 7 11 11 9 11 16 14 21 22 16 8 11 8 5 7 21 36 35 23 26 19 16 14 24 25 19
50 55 63 72 74 73 66 62 42 29 22 12 17 10 7 9 7 4 7 11 14 9 16 9 14 16 14 13 15 24 26 22 18 10 11 4 15 15 21 13 14 9 8 10 8 5 4
48 51 59 66 71 72 70 66 62 39 30 17 13 8 12 5 3 10 14 10 13 20 9 10 20 20 22 10 18 18 16 18 23 18 13 9 13 12 26 9 9 14 1 7 4 2 3
45 47 56 63 67 68 71 72 62 51 44 27 21 17 11 11 16 15 11 12 14 15 16 14 18 19 15 15 24 23 24 13 13 9 18 15 16 17 15 14 21 11 5 8 22 15 22
40 41 47 55 63 68 69 68 65 53 51 38 31 27 14 15 20 17 18 21 17 5 8 13 17 15 11 21 18 20 19 25 3 7 10 13 17 17 15 21 7 12 14 18 5 14 13
36 34 36 45 50 57 63 68 66 59 53 38 37 31 16 14 20 19 20 21 19 15 8 9 13 11 15 26 13 13 14 10 7 12 8 13 17 15 17 23 8 11 19 8 3 13 12
33 30 29 35 40 44 49 57 62 57 54 45 39 38 17 29 30 30 24 19 20 23 15 24 24 17 12 17 15 13 7 7 11 17 7 6 19 15 16 18 9 11 8 3 13 10 18
31 29 26 28 33 38 35 40 45 49 41 35 35 31 25 32 28 29 28 28 30 28 17 31 7 15 12 15 11 7 9 5 7 6 12 13 13 12 16 4 9 6 4 7 13 24 20
30 27 23 22 25 33 35 33 35 38 35 34 30 20 22 25 18 21 26 25 21 19 19 24 13 14 13 11 10 9 9 8 11 3 12 3 11 6 7 4 6 14 19 18 19 18 15
Wind_Direction_500mb
31 24 17 12 5 353 345 338 330 324 315 303 297 294 284 272 262 261 259 256 249 238 232 227 231 232 227 237 253 220 227 222 202 190 205 207 213 221 224 218 215 213 216 222 100 103 95
33 26 20 14 8 359 348 342 335 328 317 305 296 293 285 275 266 263 254 246 235 230 224 218 223 222 227 250 229 212 209 198 189 191 201 207 217 221 263 243 200 197 248 180 124 124 116
33 27 20 16 10 3 353 347 341 331 321 308 296 291 282 271 268 269 255 234 219 216 214 211 214 218 255 236 205 193 164 166 190 191 208 213 223 204 233 223 211 192 147 157 131 147 138
33 28 21 16 10 6 359 352 346 338 324 312 296 287 278 270 268 266 241 212 205 207 210 209 207 203 252 210 198 189 186 192 189 207 221 214 212 219 241 211 182 201 188 185 178 171 168
33 27 22 17 13 6 2 356 353 345 331 315 299 288 274 264 267 237 207 192 189 196 201 196 204 211 246 228 201 195 194 196 197 198 207 203 201 219 206 209 210 208 203 209 150 209 185
31 26 20 17 13 9 3 359 356 351 339 323 298 281 267 251 232 194 171 150 159 187 204 213 245 239 230 217 191 194 193 198 183 184 183 193 211 221 218 217 212 201 226 214 177 157 201
28 22 18 14 11 8 4 360 357 354 345 328 304 277 237 218 187 174 156 135 221 225 215 227 211 250 137 159 179 190 192 196 201 203 216 204 217 213 215 221 243 276 217 213 112 128 137
25 21 16 13 10 6 4 1 358 355 349 334 308 264 217 193 173 171 194 237 348 339 284 229 237 232 218 202 188 195 188 199 206 215 214 194 232 247 235 227 231 255 255 104 128 158 192
23 19 15 12 8 5 4 1 358 356 348 336 312 232 193 174 177 189 203 261 294 330 260 200 218 221 209 202 214 193 195 207 213 229 230 239 234 213 245 233 245 235 236 168 192 171 181
21 17 13 8 5 2 1 359 356 354 348 334 305 221 177 162 158 203 242 253 291 305 265 157 195 215 198 199 228 201 203 213 233 239 239 237 247 220 229 238 215 239 217 210 183 184 199
19 15 10 4 359 356 356 355 354 351 345 331 294 210 184 172 175 206 185 303 292 276 260 153 130 143 190 205 187 198 204 220 234 229 240 239 230 205 234 229 211 250 210 224 176 216 249
18 12 6 0 357 354 351 351 351 348 341 326 277 206 186 192 215 213 277 287 264 236 245 140 146 188 196 212 201 156 200 228 239 260 228 256 245 244 231 240 268 254 250 206 189 223 243
21 16 9 2 356 352 348 349 350 348 341 324 258 209 191 176 164 229 270 234 243 247 93 153 182 170 200 202 210 197 199 205 226 223 232 223 241 219 252 257 209 239 223 199 216 226 239
25 19 13 7 1 354 349 349 349 349 346 332 233 209 195 185 224 270 240 242 260 30 333 36 277 273 223 218 211 213 222 220 220 245 271 225 216 210 182 233 240 215 223 229 207 224 233
20 13 8 6 3 0 354 350 350 350 349 360 92 163 198 217 208 242 257 239 270 32 22 315 282 240 224 236 236 196 226 238 208 210 251 288 245 87 220 241 257 234 231 235 269 285 278
19 13 8 6 5 8 3 354 351 351 356 115 107 197 162 214 198 234 251 269 346 25 320 304 288 334 274 214 204 239 220 220 218 327 264 283 285 197 154 223 246 250 266 249 232 259 268
19 12 10 9 10 14 6 355 354 355 5 129 146 219 251 169 191 229 250 317 44 63 333 321 320 304 294 309 297 257 253 74 10 165 266 267 254 257 230 221 247 206 234 251 279 279 277
21 17 15 14 17 17 10 1 360 11 56 140 258 248 140 167 222 236 276 8 34 308 294 291 285 289 297 325 308 284 290 80 356 321 260 218 277 256 245 35 321 279 290 295 274 262 249
26 23 21 22 24 18 14 11 13 40 45 181 275 90 163 178 266 235 111 264 22 327 29 326 305 342 333 305 309 288 353 31 3 326 3 355 237 253 256 199 209 240 238 253 273 291 273
29 27 27 29 29 24 12 18 23 33 45 87 285 182 148 223 299 314 351 259 243 54 330 326 307 290 297 276 250 277 290 103 357 7 351 314 271 272 273 19 213 263 254 245 265 267 274
31 30 32 33 33 31 30 24 28 34 46 35 334 57 5 26 81 331 302 344 307 358 331 11 220 9 329 294 291 271 283 290 189 135 225 262 259 267 268 289 276 302 295 260 253 262 288
31 29 29 32 33 33 33 35 35 43 49 37 349 334 82 55 332 322 6 38 348 2 344 26 336 332 323 327 347 316 331 299 287 127 275 220 271 279 245 261 275 261 282 290 301 358 339
31 29 28 29 33 35 35 34 36 41 50 52 32 18 302 10 55 299 38 6 5 341 125 5 327 313 296 48 333 329 304 286 280 282 263 254 277 233 254 184 232 238 308 339 38 286 77
30 33 34 36 38 38 40 39 37 38 47 46 31 352 344 70 42 38 1 342 346 356 321 339 2 334 33 315 294 262 267 255 243 243 272 246 237 237 253 181 232 86 40 13 79 61 77
28 34 40 40 39 41 40 40 39 47 49 42 42 26 20 48 27 28 9 351 315 296 26 343 3 346 318 292 272 240 228 229 216 279 231 255 263 251 225 217 109 161 172 158 187 100 91
25 36 41 38 38 38 38 38 39 44 48 40 42 36 13 335 26 335 320 20 338 349 249 68 37 338 316 288 281 286 317 333 239 205 251 237 243 264 240 256 245 33 135 82 275 143 126
26 35 39 37 36 34 35 35 36 44 47 40 44 44 54 74 41 28 21 354 353 339 283 42 352 326 282 294 308 334 337 315 306 325 353 273 305 264 253 244 95 69 101 217 225 106 130
24 31 34 35 32 27 26 25 28 35 44 35 34 44 52 78 55 38 30 18 359 356 339 0 358 326 316 315 345 358 333 325 250 339 339 354 336 15 334 356 86 16 90 24 98 111 126
18 19 20 23 22 24 23 17 15 20 34 37 27 26 44 63 73 52 30 19 13 354 330 333 358 35 342 343 0 337 348 349 339 9 2 70 25 57 64 81 35 49 90 103 114 126 128
Wind_Speed_850mb
15 16 16 17 17 17 16 16 16 16 16 16 15 14 14 13 13 13 12 13 13 13 12 13 13 11 9 14 20 8 13 16 20 25 31 32 32 31 28 28 31 25 27 22 37 38 43
19 19 19 19 20 20 20 19 17 16 15 16 15 14 13 12 12 12 11 12 12 11 11 12 12 10 8 28 5 7 11 13 23 27 29 31 25 29 20 22 20 31 33 27 42 33 36
21 22 21 22 22 23 23 23 19 17 15 14 13 13 12 11 12 11 10 10 10 10 10 12 12 10 17 20 9 13 16 12 20 24 24 27 23 18 25 20 31 20 16 12 31 27 38
24 24 24 25 25 25 25 25 24 19 15 13 12 11 11 10 10 9 8 8 9 9 9 10 10 7 16 16 15 20 19 14 20 18 19 25 25 29 22 11 18 31 30 29 26 40 34
26 27 26 26 28 28 27 26 25 22 16 12 11 11 10 8 8 5 6 8 7 7 7 7 2 10 20 14 25 27 23 19 20 17 15 20 27 31 28 21 28 29 33 43 19 29 24
28 28 28 29 30 30 30 29 27 23 17 12 9 8 8 7 5 7 8 7 5 6 7 7 14 15 20 23 26 30 28 17 24 23 20 26 27 25 26 29 30 35 39 38 34 18 23
30 30 30 31 32 33 32 30 28 24 18 12 9 6 7 6 8 11 14 6 4 10 27 25 9 11 12 14 23 30 32 27 27 29 29 36 24 31 37 40 40 19 30 30 32 20 25
31 32 33 33 33 33 33 31 29 26 19 13 8 5 7 7 13 17 12 13 9 11 20 36 30 27 12 14 26 34 35 34 33 31 35 23 32 35 32 29 31 21 31 18 22 17 9
32 33 34 35 35 34 33 32 30 27 20 14 7 5 7 10 14 16 12 10 7 15 16 21 29 32 29 29 29 40 43 45 31 33 36 32 31 40 18 20 24 30 36 27 23 19 14
35 36 36 36 35 34 33 32 31 29 21 14 7 6 13 15 9 9 12 9 10 15 11 27 24 23 33 34 32 37 42 43 38 35 38 28 41 12 18 34 32 36 33 27 30 32 23
38 38 38 38 37 36 34 34 32 30 24 15 6 8 17 28 11 10 4 8 13 7 11 18 21 15 30 41 28 31 30 42 37 31 26 32 30 30 33 34 30 32 24 31 32 38 39
42 42 41 41 39 38 36 33 32 29 25 15 7 10 21 24 11 9 7 11 3 15 9 15 17 22 30 41 21 28 31 30 29 30 30 38 15 27 35 23 14 18 27 29 30 31 34
47 48 49 48 43 39 36 34 32 28 24 14 6 11 27 25 5 9 9 10 15 18 10 9 8 25 32 32 26 23 33 34 28 24 30 33 36 27 25 21 18 36 26 17 22 28 33
50 55 58 57 51 42 36 34 32 28 23 10 3 8 21 33 10 8 8 18 20 9 8 12 7 14 30 33 31 27 31 32 37 30 30 30 33 43 28 36 25 27 38 26 28 33 36
53 58 61 62 57 45 37 34 32 26 20 4 3 3 9 13 17 9 19 19 11 12 11 14 25 24 28 33 20 27 31 31 33 30 30 21 24 14 2 16 24 28 34 41 49 48 32
54 59 63 63 56 44 41 38 30 21 13 3 9 6 11 12 19 10 19 25 6 6 14 19 25 5 27 32 31 33 30 30 19 4 6 22 16 20 21 16 29 35 31 27 31 37 45
55 63 67 64 54 44 49 44 32 16 7 5 6 13 1 13 13 21 19 9 7 11 16 14 21 15 23 20 20 27 19 18 18 9 16 27 21 19 7 23 32 22 35 34 32 32 24
58 65 68 64 50 46 53 47 31 12 4 4 6 5 6 16 20 20 14 12 7 11 5 8 12 15 19 24 26 23 25 20 11 12 13 5 13 28 24 11 12 18 30 32 18 32 37
58 66 68 65 51 46 52 50 30 12 5 5 9 11 6 12 11 11 8 1 7 10 8 11 11 6 15 21 12 11 10 16 16 9 18 11 16 24 39 29 26 22 30 23 27 23 39
57 65 70 70 57 50 46 50 32 17 7 3 9 7 11 13 9 18 12 5 6 9 2 12 13 15 14 22 16 15 11 7 11 12 12 13 20 22 28 14 11 26 23 21 24 21 31
54 61 69 74 70 60 56 44 42 23 13 6 6 9 8 4 8 12 12 13 19 7 11 11 9 11 16 14 21 22 16 8 11 8 5 7 21 36 35 23 26 19 16 14 24 25 19
50 55 63 72 74 73 66 62 42 29 22 12 17 10 7 9 7 4 7 11 14 9 16 9 14 16 14 13 15 24 26 22 18 10 11 4 15 15 21 13 14 9 8 10 8 5 4
48 51 59 66 71 72 70 66 62 39 30 17 13 8 12 5 3 10 14 10 13 20 9 10 20 20 22 10 18 18 16 18 23 18 13 9 13 12 26 9 9 14 1 7 4 2 3
45 47 56 63 67 68 71 72 62 51 44 27 21 17 11 11 16 15 11 12 14 15 16 14 18 19 15 15 24 23 24 13 13 9 18 15 16 17 15 14 21 11 5 8 22 15 22
40 41 47 55 63 68 69 68 65 53 51 38 31 27 14 15 20 17 18 21 17 5 8 13 17 15 11 21 18 20 19 25 3 7 10 13 17 17 15 21 7 12 14 18 5 14 13
36 34 36 45 50 57 63 68 66 59 53 38 37 31 16 14 20 19 20 21 19 15 8 9 13 11 15 26 13 13 14 10 7 12 8 13 17 15 17 23 8 11 19 8 3 13 12
33 30 29 35 40 44 49 57 62 57 54 45 39 38 17 29 30 30 24 19 20 23 15 24 24 17 12 17 15 13 7 7 11 17 7 6 19 15 16 18 9 11 8 3 13 10 18
31 29 26 28 33 38 35 40 45 49 41 35 35 31 25 32 28 29 28 28 30 28 17 31 7 15 12 15 11 7 9 5 7 6 12 13 13 12 16 4 9 6 4 7 13 24 20
30 27 23 22 25 33 35 33 35 38 35 34 30 20 22 25 18 21 26 25 21 19 19 24 13 14 13 11 10 9 9 8 11 3 12 3 11 6 7 4 6 14 19 18 19 18 15
Wind_Direction_850mb
31 24 17 12 5 353 345 338 330 324 315 303 297 294 284 272 262 261 259 256 249 238 232 227 231 232 227 237 253 220 227 222 202 190 205 207 213 221 224 218 215 213 216 222 100 103 95
33 26 20 14 8 359 348 342 335 328 317 305 296 293 285 275 266 263 254 246 235 230 224 218 223 222 227 250 229 212 209 198 189 191 201 207 217 221 263 243 200 197 248 180 124 124 116
33 27 20 16 10 3 353 347 341 331 321 308 296 291 282 271 268 269 255 234 219 216 214 211 214 218 255 236 205 193 164 166 190 191 208 213 223 204 233 223 211 192 147 157 131 147 138
33 28 21 16 10 6 359 352 346 338 324 312 296 287 278 270 268 266 241 212 205 207 210 209 207 203 252 210 198 189 186 192 189 207 221 214 212 219 241 211 182 201 188 185 178 171 168
33 27 22 17 13 6 2 356 353 345 331 315 299 288 274 264 267 237 207 192 189 196 201 196 204 211 246 228 201 195 194 196 197 198 207 203 201 219 206 209 210 208 203 209 150 209 185
31 26 20 17 13 9 3 359 356 351 339 323 298 281 267 251 232 194 171 150 159 187 204 213 245 239 230 217 191 194 193 198 183 184 183 193 211 221 218 217 212 201 226 214 177 157 201
28 22 18 14 11 8 4 360 357 354 345 328 304 277 237 218 187 174 156 135 221 225 215 227 211 250 137 159 179 190 192 196 201 203 216 204 217 213 215 221 243 276 217 213 112 128 137
25 21 16 13 10 6 4 1 358 355 349 334 308 264 217 193 173 171 194 237 348 339 284 229 237 232 218 202 188 195 188 199 206 215 214 194 232 247 235 227 231 255 255 104 128 158 192
23 19 15 12 8 5 4 1 358 356 348 336 312 232 193 174 177 189 203 261 294 330 260 200 218 221 209 202 214 193 195 207 213 229 230 239 234 213 245 233 245 235 236 168 192 171 181
21 17 13 8 5 2 1 359 356 354 348 334 305 221 177 162 158 203 242 253 291 305 265 157 195 215 198 199 228 201 203 213 233 239 239 237 247 220 229 238 215 239 217 210 183 184 199
19 15 10 4 359 356 356 355 354 351 345 331 294 210 184 172 175 206 185 303 292 276 260 153 130 143 190 205 187 198 204 220 234 229 240 239 230 205 234 229 211 250 210 224 176 216 249
18 12 6 0 357 354 351 351 351 348 341 326 277 206 186 192 215 213 277 287 264 236 245 140 146 188 196 212 201 156 200 228 239 260 228 256 245 244 231 240 268 254 250 206 189 223 243
21 16 9 2 356 352 348 349 350 348 341 324 258 209 191 176 164 229 270 234 243 247 93 153 182 170 200 202 210 197 199 205 226 223 232 223 241 219 252 257 209 239 223 199 216 226 239
25 19 13 7 1 354 349 349 349 349 346 332 233 209 195 185 224 270 240 242 260 30 333 36 277 273 223 218 211 213 222 220 220 245 271 225 216 210 182 233 240 215 223 229 207 224 233
20 13 8 6 3 0 354 350 350 350 349 360 92 163 198 217 208 242 257 239 270 32 22 315 282 240 224 236 236 196 226 238 208 210 251 288 245 87 220 241 257 234 231 235 269 285 278
19 13 8 6 5 8 3 354 351 351 356 115 107 197 162 214 198 234 251 269 346 25 320 304 288 334 274 214 204 239 220 220 218 327 264 283 285 197 154 223 246 250 266 249 232 259 268
19 12 10 9 10 14 6 355 354 355 5 129 146 219 251 169 191 229 250 317 44 63 333 321 320 304 294 309 297 257 253 74 10 165 266 267 254 257 230 221 247 206 234 251 279 279 277
21 17 15 14 17 17 10 1 360 11 56 140 258 248 140 167 222 236 276 8 34 308 294 291 285 289 297 325 308 284 290 80 356 321 260 218 277 256 245 35 321 279 290 295 274 262 249
26 23 21 22 24 18 14 11 13 40 45 181 275 90 163 178 266 235 111 264 22 327 29 326 305 342 333 305 309 288 353 31 3 326 3 355 237 253 256 199 209 240 238 253 273 291 273
29 27 27 29 29 24 12 18 23 33 45 87 285 182 148 223 299 314 351 259 243 54 330 326 307 290 297 276 250 277 290 103 357 7 351 314 271 272 273 19 213 263 254 245 265 267 274
31 30 32 33 33 31 30 24 28 34 46 35 334 57 5 26 81 331 302 344 307 358 331 11 220 9 329 294 291 271 283 290 189 135 225 262 259 267 268 289 276 302 295 260 253 262 288
31 29 29 32 33 33 33 35 35 43 49 37 349 334 82 55 332 322 6 38 348 2 344 26 336 332 323 327 347 316 331 299 287 127 275 220 271 279 245 261 275 261 282 290 301 358 339
31 29 28 29 33 35 35 34 36 41 50 52 32 18 302 10 55 299 38 6 5 341 125 5 327 313 296 48 333 329 304 286 280 282 263 254 277 233 254 184 232 238 308 339 38 286 77
30 33 34 36 38 38 40 39 37 38 47 46 31 352 344 70 42 38 1 342 346 356 321 339 2 334 33 315 294 262 267 255 243 243 272 246 237 237 253 181 232 86 40 13 79 61 77
28 34 40 40 39 41 40 40 39 47 49 42 42 26 20 48 27 28 9 351 315 296 26 343 3 346 318 292 272 240 228 229 216 279 231 255 263 251 225 217 109 161 172 158 187 100 91
25 36 41 38 38 38 38 38 39 44 48 40 42 36 13 335 26 335 320 20 338 349 249 68 37 338 316 288 281 286 317 333 239 205 251 237 243 264 240 256 245 33 135 82 275 143 126
26 35 39 37 36 34 35 35 36 44 47 40 44 44 54 74 41 28 21 354 353 339 283 42 352 326 282 294 308 334 337 315 306 325 353 273 305 264 253 244 95 69 101 217 225 106 130
24 31 34 35 32 27 26 25 28 35 44 35 34 44 52 78 55 38 30 18 359 356 339 0 358 326 316 315 345 358 333 325 250 339 339 354 336 15 334 356 86 16 90 24 98 111 126
18 19 20 23 22 24 23 17 15 20 34 37 27 26 44 63 73 52 30 19 13 354 330 333 358 35 342 343 0 337 348 349 339 9 2 70 25 57 64 81 35 49 90 103 114 126 128